Regional Weather Roundup
Issued by NWS Sterling, VA

Home | Current Version | Previous Version | Graphics & Text | Print | Product List | Glossary On
Versions: 1 2 3 4 5 6 7 8 9 10 11 12 13 14 15 16 17 18 19 20 21 22 23 24 25 26 27
000
ASUS41 KLWX 250611
RWRLWX

REGIONAL WEATHER ROUNDUP
NATIONAL WEATHER SERVICE BALTIMORE MD/WASHINGTON DC
200 AM EDT THU MAY 25 2017

Note: "FAIR" indicates few or no clouds below 12,000 feet
with no significant weather and/or obstructions to visibility.
 TC=TEMPERATURE CELSIUS

 * =Non NWS site. Station does not report precipitation (e.g. rain,
    snow, etc.), thunder, or fog.

DCZ001-MDZ009-015-VAZ040>042-051-053>054-250700-
WASHINGTON METRO

CITY           SKY/WX    TMP DP  RH WIND       PRES   REMARKS
WASHINGTON NAT LGT RAIN  58  57  97 E14       29.61F FOG
DULLES         LGT RAIN  56  54  93 E13       29.60F
ANDREWS AFB    LGT RAIN  55  55 100 E15G22    29.60F
FT BELVOIR     LGT RAIN  57  55  93 E5        29.60F
QUANTICO       LGT RAIN  59  58  96 E12       29.61F
COLLEGE PARK*  CLOUDY    56  54  94 E7G16     29.63F
LEESBURG*      LGT RAIN  57  57 100 E8G20     29.61F
MANASSAS*      LGT RAIN  57  56  96 E14       29.59F
GAITHERSBURG*  LGT RAIN  55  54  96 VRB6G18   29.62F

$$

MDZ006>007-011-014-250700-
BALTIMORE METRO

CITY           SKY/WX    TMP DP  RH WIND       PRES   REMARKS
BWI AIRPORT    RAIN      57  57 100 E16       29.64F
MD SCIENCE CTR   N/A     59  57  93 MISG      29.66F
MARTIN STATE   LGT RAIN  57  57 100 NE8G16    29.68F
ANNAPOLIS      LGT RAIN  60  58  92 MISG      29.64F FOG
FORT MEADE*    CLOUDY    55  54  94 E12       29.67F

$$

MDZ012-015-019>023-250700-
MARYLAND EASTERN SHORE

CITY           SKY/WX    TMP DP  RH WIND       PRES   REMARKS
OCEAN CITY     HVY RAIN  57  55  93 E14       29.68F
SALISBURY      LGT RAIN  56  56 100 E13       29.65F
BAY BRIDGE AP* RAIN      57  55  94 E9        29.65F
CAMBRIDGE*       N/A     55  55 100 E10G18    29.64F
EASTON*        LGT RAIN  57  55  92 E12G18    29.68F

$$

MDZ017>025-250700-
SOUTHERN MARYLAND

CITY           SKY/WX    TMP DP  RH WIND       PRES   REMARKS
PATUXENT RIVER LGT RAIN  57  57 100 E17G26    29.61F
ST INIGOES     LGT RAIN  58  57  97 E12       29.61F
LEONARDTOWN*   CLOUDY    55  54  94 E12G18    29.62F

$$

MDZ003>005-250700-
NORTH CENTRAL MARYLAND

CITY           SKY/WX    TMP DP  RH WIND       PRES   REMARKS
FREDERICK*     LGT RAIN  59  59 100 NE7       29.65F
HAGERSTOWN APT LGT RAIN  57  55  93 VRB5      29.62F
WESTMINSTER*   RAIN      55  55 100 E10G17    29.65F

$$

MDZ501>502-250700-
WESTERN MARYLAND

CITY           SKY/WX    TMP DP  RH WIND       PRES   REMARKS
OAKLAND*       CLOUDY    50  50 100 E22G30    29.54F FOG
CUMBERLAND*    CLOUDY    57  57 100 N5        29.62F

$$

VAZ025>031-250700-
SHENANDOAH VALLEY

CITY           SKY/WX    TMP DP  RH WIND       PRES   REMARKS
WINCHESTER*    LGT RAIN  54  54 100 E12       29.58F
FRONT ROYAL*   CLOUDY    55  55 100 NW3       29.57F
LURAY*         LGT RAIN  57  55  94 NE6       29.55F
NEW MARKET*    CLOUDY    58  56  91 N8        29.54F
STAUNTON*      LGT RAIN  57  56  95 NE5       29.55F
WAYNESBORO*    CLOUDY    56  56 100 E6        29.53F

$$

WVZ021-048>050-054>055-250700-
EASTERN WEST VIRGINIA PANHANDLE

CITY           SKY/WX    TMP DP  RH WIND       PRES   REMARKS
MARTINSBURG    LGT RAIN  56  54  93 E7        29.60F
PETERSBURG*    HVY RAIN  59  58  96 CALM      29.55F

$$

VAZ036>039-050-250700-
CENTRAL FOOTHILLS

CITY           SKY/WX    TMP DP  RH WIND       PRES   REMARKS
CHARLOTTESVILL RAIN      60  59  96 CALM      29.55F FOG
CULPEPER*      DRIZZLE   58  58  98 E5        29.58F
ORANGE*        RAIN      55  55 100 E14       29.55F
GORDONSVILLE*  CLOUDY    58  58 100 E8        29.54F
WARRENTON*     DRIZZLE   58  55  88 E10       29.58F

$$

VAZ055>057-250700-
NORTH AND CENTRAL PIEDMONT

CITY           SKY/WX    TMP DP  RH WIND       PRES   REMARKS
FREDERICKSBRG* LGT RAIN  58  58 100 E8        29.57F
STAFFORD*      RAIN      57  57 100 E13       29.62F

$$

NCZ024-NYZ072-PAZ021-071-VAZ022-071-250700-
OTHER REGIONAL OBSERVATIONS

CITY           SKY/WX    TMP DP  RH WIND       PRES   REMARKS
NEW YORK CITY  CLOUDY    59  51  75 E7        29.82F
PHILADELPHIA   CLOUDY    58  53  84 E13       29.73F
PITTSBURGH     LGT RAIN  58  57  97 SE10      29.51S
ROANOKE        LGT RAIN  59  59 100 NW5       29.52F
RICHMOND       LGT RAIN  59  59 100 E9        29.56F
RALEIGH        CLOUDY    68  67  96 S6        29.50F

$$

ANZ530>537-250700-
MARINE OBSERVATIONS

STATION/POSITION TIME  TEMP    WIND        PRES
                       AIR SEA DIR/SP/G
                 (UTC) (F)     (DEG/KT/KT) (MB)
THOMAS PT LIGHT  0600   57 64   80/ 13/ 15   N/A
BALT KEY BRIDGE  0548   58      90/ 14/ 17 1003.9F
COVE POINT       0548   57     130/ 14/ 19 1003.8F
LEWISETTA        0548   60 65  110/ 21/ 25 1002.3F
SOLOMONS ISLAND  0548   59 66   90/ 19/ 21   N/A
PINEY POINT      0548          120/ 17/ 20   N/A

$$





USA.gov is the U.S. government's official web portal to all federal, state and local government web resources and services.